Weather reports worldwide

Advertisment
Cervia, Italy (16148): temperature & dewpoint: 18.01.2019 00:00:00 - 24.01.2019 00:00:00 (CET)Cervia, Italy (16148): wind speed: 18.01.2019 00:00:00 - 24.01.2019 00:00:00 (CET)Cervia, Italy (16148): wind direction: 18.01.2019 00:00:00 - 24.01.2019 00:00:00 (CET)Cervia, Italy (16148): reduced air pressure: 18.01.2019 00:00:00 - 24.01.2019 00:00:00 (CET)Cervia, Italy (16148): visibility: 18.01.2019 00:00:00 - 24.01.2019 00:00:00 (CET)Cervia, Italy (16148): sunshine duration: 18.01.2019 00:00:00 - 24.01.2019 00:00:00 (CET)
Date & Time tt [°C] td [°C] ff [km/h] ff [kn] dd ppp [hPa] vv [km] sd [min]
24.01.2019 00:00:00 2,0 0,0 18 10 WSW - 1,8 -
23.01.2019 23:00:00 2,0 0,0 13 7 W - 1,8 -
23.01.2019 22:00:00 2,4 0,6 11 6 W 995,0 2,0 -
23.01.2019 21:00:00 3,0 1,0 5 3 W - 3,0 -
23.01.2019 20:00:00 3,0 1,0 4 2 W - 6 -
23.01.2019 19:00:00 3,2 0,9 4 2 S 995,9 12 -
23.01.2019 18:00:00 3,0 1,0 4 2 E - 10 -
23.01.2019 17:00:00 3,0 0,0 4 2 NE - 10 -
23.01.2019 16:00:00 3,6 0,1 8 4 ENE 996,5 12 0
23.01.2019 15:00:00 4,0 0,0 9 5 ENE - 10 -
23.01.2019 14:00:00 4,0 0,0 9 5 NE - 10 -
23.01.2019 13:00:00 3,8 0,1 4 2 NE 997,8 11 18
23.01.2019 12:00:00 3,0 0,0 5 3 NW - 10 -
23.01.2019 11:00:00 2,0 -1,0 11 6 WNW - 10 -
23.01.2019 10:00:00 1,6 -0,8 13 7 WNW 999,7 10 0
23.01.2019 09:00:00 1,0 -1,0 11 6 W - 8 -
23.01.2019 08:00:00 1,0 -1,0 13 7 W - 7 -
23.01.2019 07:00:00 1,0 -1,2 13 7 W 1000,1 8 0
23.01.2019 06:00:00 1,0 -1,0 15 8 W - 7 -
23.01.2019 05:00:00 0,0 -2,0 18 10 W - 1,8 -
23.01.2019 04:00:00 1,2 -1,0 18 10 W 1000,5 2,0 -
23.01.2019 03:00:00 2,0 -1,0 15 8 W - 5 -
23.01.2019 02:00:00 2,0 -1,0 15 8 W - 5 -
23.01.2019 01:00:00 1,8 -0,6 16 9 W 1002,1 6 -
23.01.2019 00:00:00 1,0 -1,0 11 6 WSW - 6 -
22.01.2019 23:00:00 1,0 -1,0 15 8 WSW - 5 -
22.01.2019 22:00:00 1,0 -1,2 13 7 WSW 1003,4 3,0 -
22.01.2019 21:00:00 0,0 -2,0 13 7 W - 2,0 -
22.01.2019 20:00:00 0,0 -2,0 16 9 W - 1,7 -
22.01.2019 19:00:00 0,4 -1,7 22 12 W 1004,4 1,7 -
22.01.2019 18:00:00 0,0 -2,0 21 11 W - 1,3 -
22.01.2019 17:00:00 0,0 -2,0 18 10 W - 0,9 -
22.01.2019 16:00:00 0,2 -1,2 21 11 W 1005,3 0,8 0
22.01.2019 15:00:00 0,0 -1,0 18 10 W - 0,7 -
22.01.2019 14:00:00 1,0 0,0 22 12 W - 1,0 -
22.01.2019 13:00:00 1,0 0,3 24 13 W 1007,9 1,0 0
22.01.2019 12:00:00 1,0 1,0 18 10 W - 2,0 -
22.01.2019 11:00:00 1,0 0,0 18 10 WNW - 1,2 -
22.01.2019 10:00:00 1,8 0,3 22 12 W 1010,0 3,8 0
22.01.2019 09:00:00 2,0 0,0 21 11 W - 3,5 -
22.01.2019 08:00:00 2,0 0,0 22 12 W - 5 -
22.01.2019 07:00:00 2,0 0,8 18 10 W 1010,5 5 0
22.01.2019 06:00:00 2,0 1,0 18 10 W - 5 -
22.01.2019 05:00:00 3,0 1,0 16 9 WNW - 5 -
22.01.2019 04:00:00 2,8 1,0 15 8 WNW 1012,5 5 -
22.01.2019 03:00:00 3,0 1,0 18 10 W - 5 -
22.01.2019 02:00:00 3,0 1,0 16 9 WNW - 5 -
22.01.2019 01:00:00 3,6 1,8 16 9 WNW 1014,5 5 -
22.01.2019 00:00:00 3,0 2,0 18 10 WNW - 5 -
21.01.2019 23:00:00 3,0 2,0 21 11 WNW - 5 -
21.01.2019 22:00:00 3,8 2,3 21 11 W 1015,5 5 -
21.01.2019 21:00:00 4,0 2,0 21 11 W - 5 -
21.01.2019 20:00:00 4,0 2,0 18 10 W - 5 -
21.01.2019 19:00:00 3,8 2,5 16 9 W 1015,6 5 -
21.01.2019 18:00:00 4,0 2,0 16 9 W - 5 -
21.01.2019 17:00:00 4,0 3,0 15 8 W - 5 -
21.01.2019 16:00:00 4,2 1,9 21 11 W 1016,0 5 0
21.01.2019 15:00:00 4,0 2,0 21 11 WNW - 8 -
21.01.2019 14:00:00 4,0 2,0 21 11 WNW - 6 -
21.01.2019 13:00:00 3,8 2,2 16 9 W 1016,9 6 0
21.01.2019 12:00:00 4,0 2,0 18 10 W - 6 -
21.01.2019 11:00:00 4,0 2,0 16 9 W - 6 -
21.01.2019 10:00:00 3,8 2,0 16 9 W 1017,5 7 0
21.01.2019 09:00:00 3,0 0,0 15 8 W - 10 -
21.01.2019 08:00:00 3,0 0,0 15 8 WNW - 10 -
21.01.2019 07:00:00 2,9 0,5 13 7 WNW 1016,3 15 0
21.01.2019 06:00:00 3,0 1,0 11 6 WSW - 10 -
21.01.2019 05:00:00 3,0 1,0 8 4 W - 10 -
21.01.2019 04:00:00 3,6 1,8 8 4 WSW 1016,3 15 -
21.01.2019 03:00:00 4,0 2,0 8 4 W - 10 -
21.01.2019 02:00:00 4,0 2,0 8 4 W - 10 -
21.01.2019 01:00:00 3,8 1,0 8 4 W 1016,3 15 -
21.01.2019 00:00:00 4,0 1,0 9 5 WNW - 10 -
20.01.2019 23:00:00 4,0 1,0 11 6 WNW - 10 -
20.01.2019 22:00:00 4,0 1,2 9 5 W 1015,9 15 -
20.01.2019 21:00:00 4,0 2,0 8 4 WNW - 10 -
20.01.2019 20:00:00 4,0 1,0 5 3 W - 10 -
20.01.2019 19:00:00 4,0 1,2 5 3 WNW 1015,5 10 -
20.01.2019 18:00:00 4,0 1,0 5 3 NW - 10 -
20.01.2019 17:00:00 5,0 1,0 8 4 NNW - 10 -
20.01.2019 16:00:00 5,0 0,6 9 5 NNW 1015,3 10 0
20.01.2019 15:00:00 6,0 0,0 4 2 N - 10 -
20.01.2019 14:00:00 5,0 -1,0 5 3 N - 10 -
20.01.2019 13:00:00 5,4 -0,9 8 4 NNW 1015,5 10 0
20.01.2019 12:00:00 5,0 -1,0 5 3 NNW - 10 -
20.01.2019 11:00:00 4,0 -1,0 5 3 NW - 10 -
20.01.2019 10:00:00 3,4 0,1 8 4 NW 1015,6 10 0
20.01.2019 09:00:00 3,0 1,0 4 2 WNW - 10 -
20.01.2019 08:00:00 3,0 1,0 5 3 W - 10 -
20.01.2019 07:00:00 2,8 0,5 4 2 WNW 1014,9 16 0
20.01.2019 06:00:00 3,0 1,0 5 3 WNW - 10 -
20.01.2019 05:00:00 3,0 1,0 8 4 WNW - 10 -
20.01.2019 04:00:00 3,0 0,7 8 4 W 1015,3 16 -
20.01.2019 03:00:00 3,0 1,0 9 5 W - 10 -
20.01.2019 02:00:00 3,0 1,0 9 5 W - 10 -
20.01.2019 01:00:00 3,0 0,9 11 6 WNW 1015,6 16 -
20.01.2019 00:00:00 3,0 1,0 9 5 W - 10 -
19.01.2019 23:00:00 3,0 1,0 13 7 W - 10 -
19.01.2019 22:00:00 3,0 1,2 13 7 W 1015,9 16 -
19.01.2019 21:00:00 4,0 2,0 11 6 W - 10 -
19.01.2019 20:00:00 4,0 2,0 11 6 W - 10 -
19.01.2019 19:00:00 4,0 2,0 13 7 W 1015,3 20 -
19.01.2019 18:00:00 4,0 2,0 13 7 W - 10 -
19.01.2019 17:00:00 4,0 2,0 15 8 W - 10 -
19.01.2019 16:00:00 4,0 2,2 15 8 W 1015,3 11 0
19.01.2019 15:00:00 4,0 2,0 15 8 WSW - 8 -
19.01.2019 14:00:00 4,0 2,0 15 8 W - 4,0 -
19.01.2019 13:00:00 3,2 1,4 21 11 W 1015,9 4,0 0
19.01.2019 12:00:00 3,0 1,0 21 11 W - 10 -
19.01.2019 11:00:00 4,0 2,0 18 10 W - 10 -
19.01.2019 10:00:00 4,0 2,2 21 11 W 1015,6 15 0
19.01.2019 09:00:00 4,0 2,0 18 10 W - 10 -
19.01.2019 08:00:00 4,0 2,0 15 8 W - 10 -
19.01.2019 07:00:00 5,0 3,0 13 7 WNW 1015,3 10 0
19.01.2019 06:00:00 5,0 3,0 4 2 SE - 10 -
19.01.2019 05:00:00 6,0 3,0 9 5 NE - 10 -
19.01.2019 04:00:00 5,2 2,9 5 3 NNE 1015,7 5 -
19.01.2019 03:00:00 5,0 3,0 4 2 N - 2,0 -
19.01.2019 02:00:00 5,0 3,0 5 3 NNW - 1,2 -
19.01.2019 01:00:00 5,0 3,0 8 4 N 1015,9 0,8 -
19.01.2019 00:00:00 5,0 3,0 4 2 N - 0,8 -
18.01.2019 23:00:00 5,0 3,0 4 2 NNW - 0,5 -
18.01.2019 22:00:00 5,2 3,4 5 3 S 1015,7 1,2 -
18.01.2019 21:00:00 5,0 3,0 4 2 SSW - 1,2 -
18.01.2019 20:00:00 5,0 3,0 0 0 N - 1,5 -
18.01.2019 19:00:00 5,2 3,7 5 3 W 1015,1 1,4 -
18.01.2019 18:00:00 5,0 4,0 5 3 W - 1,2 -
18.01.2019 17:00:00 6,0 5,0 9 5 NW - 1,2 -
18.01.2019 16:00:00 6,0 4,5 9 5 NW 1013,9 1,5 0
18.01.2019 15:00:00 6,0 5,0 8 4 N - 1,6 -
18.01.2019 14:00:00 7,0 5,0 2 1 N - 3,0 -
18.01.2019 13:00:00 7,0 4,8 5 3 NNW 1013,0 3,0 0
18.01.2019 12:00:00 7,0 5,0 2 1 - - 3,5 -
18.01.2019 11:00:00 6,0 5,0 5 3 N - 3,0 -
18.01.2019 10:00:00 5,0 4,1 5 3 SSW 1012,4 2,5 0
18.01.2019 09:00:00 4,0 3,0 5 3 WNW - 2,2 -
18.01.2019 08:00:00 4,0 4,0 4 2 S - 2,5 -
18.01.2019 07:00:00 5,0 4,6 5 3 W 1009,3 5 0
18.01.2019 06:00:00 5,0 4,0 9 5 WNW - 10 -
18.01.2019 05:00:00 5,0 4,0 11 6 WNW - 10 -
18.01.2019 04:00:00 6,0 4,7 5 3 S 1009,7 20 -
18.01.2019 03:00:00 6,0 5,0 8 4 SSE - 10 -
18.01.2019 02:00:00 6,0 5,0 8 4 SSE - 10 -
18.01.2019 01:00:00 6,0 5,1 9 5 SE 1010,1 20 -
18.01.2019 00:00:00 5,0 4,0 8 4 S - 10 -

tt = temperature
td = dewpoint
ff = wind speed
dd = wind direction
ppp = reduced air pressure
vv = visibility
sd = sunshine duration

Next stations